TimeEDT,TemperatureF,Dew PointF,Humidity,Sea Level PressureIn,VisibilityMPH,Wind Direction,Wind SpeedMPH,Gust SpeedMPH,PrecipitationIn,Events,Conditions,WindDirDegrees,DateUTC
12:14 AM,60.8,42.8,52,30.01,10.0,ENE,6.9,-,N/A,,Clear,60,2013-05-06 04:14:00
12:34 AM,59.0,44.6,59,30.01,10.0,ENE,6.9,-,N/A,,Clear,60,2013-05-06 04:34:00
12:54 AM,59.0,44.6,59,30.01,10.0,ENE,8.1,-,N/A,,Clear,60,2013-05-06 04:54:00
1:14 AM,57.2,46.4,67,30.01,10.0,ENE,8.1,-,N/A,,Clear,60,2013-05-06 05:14:00
1:34 AM,57.2,46.4,67,30.01,10.0,ENE,8.1,-,N/A,,Clear,60,2013-05-06 05:34:00
1:54 AM,55.4,46.4,72,30.00,10.0,ENE,6.9,-,N/A,,Clear,60,2013-05-06 05:54:00
2:15 AM,55.4,46.4,72,30.00,10.0,ENE,5.8,-,N/A,,Clear,60,2013-05-06 06:15:00
2:35 AM,53.6,44.6,72,30.00,10.0,ENE,4.6,-,N/A,,Clear,60,2013-05-06 06:35:00
2:55 AM,53.6,44.6,72,30.00,10.0,NE,3.5,-,N/A,,Clear,50,2013-05-06 06:55:00
3:15 AM,53.6,44.6,72,30.00,10.0,ENE,4.6,-,N/A,,Clear,70,2013-05-06 07:15:00
3:35 AM,51.8,44.6,76,30.00,10.0,NE,3.5,-,N/A,,Clear,40,2013-05-06 07:35:00
3:55 AM,51.8,44.6,76,29.99,10.0,NE,4.6,-,N/A,,Clear,50,2013-05-06 07:55:00
4:15 AM,51.8,42.8,71,29.99,10.0,ENE,3.5,-,N/A,,Clear,70,2013-05-06 08:15:00
4:35 AM,51.8,42.8,71,29.99,10.0,ENE,5.8,-,N/A,,Clear,60,2013-05-06 08:35:00
4:55 AM,51.8,42.8,71,30.00,10.0,ENE,4.6,-,N/A,,Clear,70,2013-05-06 08:55:00
5:16 AM,51.8,42.8,71,30.00,10.0,NE,3.5,-,N/A,,Clear,50,2013-05-06 09:16:00
5:36 AM,51.8,42.8,71,30.00,10.0,ENE,4.6,-,N/A,,Clear,60,2013-05-06 09:36:00
5:56 AM,50.0,42.8,76,30.00,10.0,ENE,5.8,-,N/A,,Clear,70,2013-05-06 09:56:00
6:16 AM,51.8,42.8,71,30.01,10.0,ENE,5.8,-,N/A,,Clear,70,2013-05-06 10:16:00
6:36 AM,51.8,42.8,71,30.01,10.0,East,6.9,-,N/A,,Clear,80,2013-05-06 10:36:00
6:56 AM,53.6,42.8,67,30.01,10.0,East,5.8,-,N/A,,Clear,80,2013-05-06 10:56:00
7:16 AM,55.4,42.8,63,30.02,10.0,East,6.9,-,N/A,,Clear,80,2013-05-06 11:16:00
7:36 AM,55.4,42.8,63,30.03,10.0,East,6.9,-,N/A,,Clear,90,2013-05-06 11:36:00
7:51 AM,57.2,44.6,63,30.03,10.0,East,6.9,-,N/A,,Clear,80,2013-05-06 11:51:00
8:12 AM,57.2,42.8,59,30.03,10.0,East,5.8,-,N/A,,Clear,80,2013-05-06 12:12:00
8:32 AM,59.0,42.8,55,30.04,10.0,East,8.1,-,N/A,,Clear,80,2013-05-06 12:32:00
8:52 AM,60.8,42.8,52,30.04,10.0,East,8.1,-,N/A,,Clear,90,2013-05-06 12:52:00
9:12 AM,60.8,42.8,52,30.04,10.0,East,9.2,-,N/A,,Clear,90,2013-05-06 13:12:00
9:32 AM,60.8,41.0,48,30.04,10.0,East,10.4,-,N/A,,Clear,80,2013-05-06 13:32:00
9:52 AM,60.8,42.8,52,30.05,10.0,ESE,8.1,-,N/A,,Clear,110,2013-05-06 13:52:00
10:12 AM,62.6,41.0,45,30.05,10.0,ENE,9.2,-,N/A,,Clear,70,2013-05-06 14:12:00
10:32 AM,62.6,42.8,48,30.06,10.0,ESE,9.2,-,N/A,,Clear,120,2013-05-06 14:32:00
10:52 AM,62.6,42.8,48,30.05,10.0,East,6.9,-,N/A,,Clear,100,2013-05-06 14:52:00
11:12 AM,64.4,42.8,45,30.05,10.0,ESE,6.9,-,N/A,,Clear,110,2013-05-06 15:12:00
11:32 AM,64.4,42.8,45,30.05,10.0,East,9.2,-,N/A,,Clear,100,2013-05-06 15:32:00
11:53 AM,62.6,42.8,48,30.06,10.0,ESE,10.4,-,N/A,,Clear,110,2013-05-06 15:53:00
12:13 PM,64.4,44.6,49,30.05,10.0,ESE,8.1,-,N/A,,Clear,120,2013-05-06 16:13:00
12:33 PM,64.4,44.6,49,30.04,10.0,ESE,9.2,-,N/A,,Clear,110,2013-05-06 16:33:00
12:53 PM,64.4,44.6,49,30.03,10.0,ESE,8.1,-,N/A,,Clear,120,2013-05-06 16:53:00
1:13 PM,64.4,44.6,49,30.03,10.0,ESE,8.1,-,N/A,,Clear,110,2013-05-06 17:13:00
1:33 PM,64.4,46.4,52,30.03,10.0,ESE,10.4,-,N/A,,Clear,120,2013-05-06 17:33:00
1:53 PM,64.4,46.4,52,30.03,10.0,SE,11.5,-,N/A,,Clear,130,2013-05-06 17:53:00
2:14 PM,64.4,46.4,52,30.02,10.0,ESE,10.4,-,N/A,,Clear,120,2013-05-06 18:14:00
2:34 PM,66.2,48.2,52,30.02,10.0,SE,9.2,-,N/A,,Clear,130,2013-05-06 18:34:00
2:54 PM,66.2,46.4,49,30.02,10.0,ESE,10.4,-,N/A,,Clear,110,2013-05-06 18:54:00
3:14 PM,66.2,46.4,49,30.02,10.0,ESE,10.4,-,N/A,,Clear,110,2013-05-06 19:14:00
3:34 PM,66.2,48.2,52,30.01,10.0,ESE,9.2,-,N/A,,Clear,110,2013-05-06 19:34:00
3:54 PM,66.2,48.2,52,30.00,10.0,SE,10.4,-,N/A,,Clear,130,2013-05-06 19:54:00
4:15 PM,66.2,46.4,49,30.00,10.0,ESE,12.7,-,N/A,,Clear,120,2013-05-06 20:15:00
4:35 PM,66.2,46.4,49,29.99,10.0,East,9.2,-,N/A,,Clear,100,2013-05-06 20:35:00
4:55 PM,66.2,46.4,49,29.99,10.0,ESE,10.4,-,N/A,,Clear,120,2013-05-06 20:55:00
5:15 PM,68.0,46.4,46,29.98,10.0,ESE,10.4,-,N/A,,Clear,110,2013-05-06 21:15:00
5:35 PM,66.2,46.4,49,29.98,10.0,East,10.4,-,N/A,,Clear,100,2013-05-06 21:35:00
5:55 PM,66.2,46.4,49,29.98,10.0,East,8.1,-,N/A,,Clear,100,2013-05-06 21:55:00
6:15 PM,68.0,46.4,46,29.98,10.0,ESE,8.1,-,N/A,,Clear,110,2013-05-06 22:15:00
6:55 PM,68.0,46.4,46,29.98,10.0,ESE,9.2,-,N/A,,Clear,120,2013-05-06 22:55:00
7:16 PM,66.2,46.4,49,29.98,10.0,ESE,6.9,-,N/A,,Clear,110,2013-05-06 23:16:00
7:36 PM,66.2,46.4,49,29.98,10.0,East,6.9,-,N/A,,Clear,100,2013-05-06 23:36:00
7:56 PM,64.4,46.4,52,29.98,10.0,East,6.9,-,N/A,,Clear,100,2013-05-06 23:56:00
8:16 PM,62.6,46.4,55,29.99,10.0,ESE,5.8,-,N/A,,Clear,120,2013-05-07 00:16:00
8:36 PM,62.6,48.2,59,29.99,10.0,ESE,5.8,-,N/A,,Clear,110,2013-05-07 00:36:00
8:56 PM,62.6,46.4,55,30.00,10.0,ESE,6.9,-,N/A,,Clear,110,2013-05-07 00:56:00
9:11 PM,60.8,46.4,59,30.00,10.0,ESE,5.8,-,N/A,,Clear,110,2013-05-07 01:11:00
9:31 PM,60.8,46.4,59,30.00,10.0,ESE,6.9,-,N/A,,Clear,110,2013-05-07 01:31:00
9:52 PM,59.0,46.4,63,30.01,10.0,ESE,5.8,-,N/A,,Clear,110,2013-05-07 01:52:00
10:12 PM,59.0,46.4,63,30.01,10.0,SE,6.9,-,N/A,,Clear,130,2013-05-07 02:12:00
10:32 PM,57.2,44.6,63,30.02,10.0,ESE,6.9,-,N/A,,Clear,110,2013-05-07 02:32:00
10:52 PM,57.2,44.6,63,30.02,10.0,East,4.6,-,N/A,,Clear,100,2013-05-07 02:52:00
11:12 PM,57.2,44.6,63,30.02,10.0,East,4.6,-,N/A,,Clear,90,2013-05-07 03:12:00
11:32 PM,57.2,42.8,59,30.02,10.0,ESE,3.5,-,N/A,,Clear,110,2013-05-07 03:32:00
11:52 PM,55.4,42.8,63,30.01,10.0,Calm,Calm,-,N/A,,Clear,0,2013-05-07 03:52:00